Home > Time Zones > World Clock > Weather > Iran > Tabriz > Past weeks

Flag for Iran Weather past 2 weeks in Tabriz, Iran

Now
77 °F

Passing clouds.


Feels Like: 78 °F
Forecast: 60 / 93 °F
Wind: 7 mph from East

Location: Tabriz Airport

Current Time: Sep 3, 2014 at 2:23:28 AM

Latest Report: Sep 3, 2014 at 1:30 AM


Visibility: N/A

Pressure: 30.01 "Hg

Humidity: 39%

Dew point: 50 °F

Location of TabrizLocation

Historic Weather in Tabriz — Graph

°F

Tabriz temperature yesterday

Maximum temperature yesterday: 95 °F (at 2:30 PM)
Minimum temperature yesterday: 72 °F (at 5:30 AM)
Average temperature yesterday: 84 °F

Past Weeks' High & Low Weather Summary

 TemperatureHumidityPressure
High99 °F (Aug 19, 3:20 PM)60% (Sep 1, 8:00 AM)30.21 "Hg (Sep 1, 8:00 AM)
Low68 °F (Aug 21, 5:30 AM)10% (Aug 29, 6:00 PM)29.68 "Hg (Sep 1, 5:00 PM)
Average85 °F27%30.04 "Hg
* Reported Aug 19 12:30 AM — Sep 3 12:30 AM, Tabriz, Weather by CustomWeather, © 2014

Note: Actual official high and low records may vary slightly from our data, if they occured in-between our weather recording intervals... More about our weather records

Advertising

Tabriz weather history for previous 24 hours

 ConditionsComfort  
Time TempWeatherWind HumidityBarometerVisibility
12:30 AM
Sep 3
75 °FPassing clouds.5 mph39%29.98 "HgN/A
11:30 PM
Sep 2
79 °FPassing clouds.12 mph37%29.98 "HgN/A
10:30 PM81 °FPassing clouds.9 mph34%29.95 "HgN/A
9:30 PM84 °FPassing clouds.9 mph25%29.95 "HgN/A
8:30 PM84 °FPassing clouds.5 mph22%29.92 "HgN/A
7:30 PM91 °FPassing clouds.9 mph20%29.92 "HgN/A
7:00 PM93 °FPassing clouds.9 mph19%29.92 "HgN/A
6:30 PM95 °FPassing clouds.12 mph19%29.92 "HgN/A
6:00 PM95 °FPassing clouds.9 mph19%29.92 "HgN/A
5:30 PM95 °FPassing clouds.7 mph20%29.92 "HgN/A
5:00 PM95 °FPassing clouds.7 mph20%29.92 "HgN/A
4:30 PM95 °FPassing clouds.7 mph22%29.92 "HgN/A
4:00 PM95 °FPassing clouds.12 mph20%29.92 "HgN/A
3:30 PM95 °FPassing clouds.2 mph22%29.95 "HgN/A
3:00 PM95 °FPassing clouds.5 mph22%29.95 "HgN/A
2:30 PM95 °FPassing clouds.2 mph22%29.95 "HgN/A
2:00 PM91 °FPassing clouds.7 mph23%29.95 "HgN/A
1:30 PM90 °FPassing clouds.5 mph24%29.98 "HgN/A
1:00 PM90 °FPassing clouds.9 mph26%29.98 "HgN/A
12:30 PM88 °FPassing clouds.18 mph27%29.98 "HgN/A
12:00 PM88 °FPassing clouds.7 mph27%30.01 "HgN/A
11:30 AM86 °FPassing clouds.12 mph31%30.01 "HgN/A
11:00 AM84 °FPassing clouds.9 mph33%30.01 "HgN/A
10:20 AM81 °FPassing clouds.9 mph37%30.01 "HgN/A
10:00 AM79 °FPassing clouds.16 mph39%30.01 "HgN/A
9:30 AM77 °FPassing clouds.12 mph39%30.01 "HgN/A
9:00 AM75 °FPassing clouds.9 mph41%30.01 "HgN/A
8:30 AM73 °FPassing clouds.7 mph44%30.01 "HgN/A
8:00 AM73 °FPassing clouds.7 mph47%30.01 "HgN/A
7:30 AM72 °FPassing clouds.12 mph50%30.01 "HgN/A
6:30 AM72 °FClear.12 mph47%30.01 "Hg10 mi
5:30 AM72 °FClear.18 mph47%29.98 "Hg10 mi
4:30 AM73 °FClear.18 mph44%29.98 "Hg10 mi
3:30 AM73 °FClear.14 mph44%29.98 "Hg10 mi
2:30 AM75 °FClear.14 mph41%29.98 "Hg10 mi
Weather by CustomWeather, © 2014

See weather overviewHow to use our weather pages